sat.trackr.live / text

‹ back to catalog

STARLINK-36746

NORAD 67733 · 2026-026N

PAYLOAD ACTIVE UNKNOWN

§ Identity

Operator
Country
US
Launch date
2026-02-11
Launch site
AFWTR
Launch vehicle
Mass (kg)
RCS (m²)

Purposes: comms

External: N2YO · Heavens-Above · Gunter

§ Orbital elements

Epoch: 2026-09-19T20:47:31.041600Z

Period
93.91 min
Inclination
97.2871°
Eccentricity
0.0000728
Mean motion
15.33450797 rev/d
Perigee alt
465.0 km
Apogee alt
466.0 km
Semi-major
6,843.7 km
B*
4.7815e-4
RAAN
314.7042°
Arg perigee
101.9656°
Mean anomaly
258.1669°
Rev number
3,388

§ Raw data

STARLINK-367461 67733U 26026N   26262.86633150  .00015396  00000+0  47815-3 0  99932 67733  97.2871 314.7042 0000728 101.9656 258.1669 15.33450797 33881

JSON: /api/v1/satellites/67733 · /tle

For live sub-satellite position, see the globe view (requires WebGL).

§ Visibility from observer

Set your observer location to see the next 7 days of passes ≥ 10°. The values pass through the URL so the page stays shareable.

No JS? Fill the form by hand. The geolocation button needs JavaScript.